EW1917 Weather Reports


Display with metric or nautical units.
time (UTC)temp
F
wind
direction
speed
MPH
gust
MPH
rain 1hr
in
rain 24hr
in
rain mn
in
humidity
%
barometer
mb
20260505170749 60 62 2.0 5.0 0.15 1.55 0.00 93 1010.7
20260505170252 61 328 3.0 5.0 0.17 1.55 0.00 93 1010.8
20260505165750 61 132 0.0 4.0 0.17 1.55 0.00 93 1010.7
20260505165249 61 128 1.0 4.0 0.17 1.55 0.00 93 1010.6
20260505164758 61 145 1.0 5.0 0.17 1.55 0.00 93 1010.7
20260505164249 61 141 2.0 3.0 0.16 1.55 0.00 93 1010.7
20260505163750 61 89 2.0 3.0 0.16 1.55 0.00 93 1010.8
20260505163253 61 293 0.0 4.0 0.16 1.55 0.00 92 1010.8
20260505162754 62 278 3.0 3.0 0.16 1.55 0.00 92 1010.7
20260505162256 62 159 4.0 5.0 0.16 1.55 0.00 91 1010.9
20260505161749 62 142 3.0 12.0 0.11 1.50 0.00 91 1010.8
20260505161250 63 178 4.0 15.0 0.05 1.44 0.00 90 1010.5
20260505160749 63 155 2.0 5.0 0.01 1.40 0.00 90 1010.3
20260505160252 63 214 2.0 7.0 0.00 1.38 0.00 89 1010.2
20260505153253 64 156 3.0 8.0 0.00 1.38 0.00 91 1010.2
20260505152753 63 171 1.0 11.0 0.00 1.38 0.00 91 1010.0
20260505152250 63 232 0.0 10.0 0.00 1.38 0.00 91 1010.1
20260505151753 63 290 2.0 10.0 0.01 1.38 0.00 91 1010.1
20260505151252 64 240 4.0 9.0 0.02 1.38 0.00 90 1010.3
20260505150749 64 185 2.0 7.0 0.02 1.38 0.00 93 1010.3
20260505150250 63 170 6.0 10.0 0.02 1.38 0.00 92 1010.3
20260505140259 64 200 6.0 6.0 0.00 1.36 0.00 94 1010.9
20260505130252 60 211 0.0 6.0 0.05 1.36 0.00 95 1011.3
20260505124749 60 169 2.0 5.0 0.03 1.33 0.00 95 1011.5
20260505124249 60 190 4.0 7.0 0.01 1.31 0.00 95 1011.5
20260505123753 59 130 1.0 7.0 0.02 1.31 0.00 96 1011.4
20260505123249 59 141 1.0 6.0 0.03 1.31 0.00 95 1011.5
20260505122753 58 105 4.0 6.0 0.03 1.30 0.00 95 1011.6
20260505122252 58 136 2.0 3.0 0.04 1.30 0.00 95 1011.5
20260505121749 58 132 2.0 4.0 0.07 1.30 0.00 95 1011.6
20260505121249 58 133 1.0 4.0 0.10 1.30 0.00 95 1011.7
20260505120752 58 123 0.0 4.0 0.18 1.30 0.00 95 1011.7
20260505120258 58 86 2.0 4.0 0.25 1.30 0.00 96 1011.7
20260505115755 58 88 2.0 6.0 0.25 1.30 0.00 96 1011.7
20260505115256 58 125 2.0 8.0 0.25 1.29 0.00 96 1011.7
20260505114749 57 121 3.0 8.0 0.25 1.29 0.00 96 1011.8
20260505114255 57 150 2.0 6.0 0.25 1.29 0.00 96 1011.9
20260505113752 57 140 5.0 8.0 0.24 1.29 0.00 95 1012.0
20260505113252 58 146 4.0 8.0 0.23 1.28 0.00 95 1011.9
20260505112750 58 195 2.0 6.0 0.22 1.27 0.00 96 1011.7
20260505112249 58 176 2.0 4.0 0.21 1.25 0.00 96 1011.7
20260505111753 58 233 0.0 7.0 0.18 1.23 0.00 96 1011.5
20260505111255 58 120 1.0 8.0 0.15 1.20 0.00 96 1011.6
20260505110749 58 239 0.0 10.0 0.08 1.12 0.00 95 1012.1
20260505110341 59 277 3.0 6.0 0.01 1.04 0.00 96 1011.8
20260505101748 58 193 0.0 2.0 0.20 1.04 0.00 96 1011.7
20260505101248 57 193 0.0 1.0 0.20 1.04 0.00 96 1011.7
20260505100745 57 200 0.0 2.0 0.19 1.03 0.00 96 1011.7
20260505100245 57 225 3.0 4.0 0.18 1.03 0.00 96 1011.9
20260505095751 57 286 0.0 3.0 0.18 1.02 0.00 96 1011.9
20260505095248 57 271 1.0 2.0 0.18 1.01 0.00 96 1011.9
20260505094749 56 188 0.0 6.0 0.15 0.99 0.00 96 1011.7
20260505094245 56 130 2.0 9.0 0.14 0.97 0.00 96 1011.7
20260505093748 56 329 6.0 10.0 0.04 0.86 0.00 95 1011.9
20260505093245 57 281 6.0 8.0 0.03 0.84 0.00 96 1011.5
20260505092745 57 265 6.0 8.0 0.06 0.84 0.00 96 1011.4
20260505092245 57 292 4.0 5.0 0.07 0.84 0.00 97 1011.4
20260505091748 57 163 4.0 4.0 0.08 0.84 0.00 97 1011.3
20260505091248 56 178 0.0 8.0 0.08 0.84 0.00 96 1011.5
20260505090745 56 171 6.0 7.0 0.08 0.84 0.00 96 1011.4
20260505090248 55 104 7.0 7.0 0.08 0.84 0.00 96 1011.5
20260505085745 55 331 3.0 5.0 0.07 0.83 0.00 96 1011.6
20260505085245 55 330 5.0 5.0 0.07 0.83 0.00 96 1011.5
20260505084748 55 46 2.0 3.0 0.07 0.83 0.00 96 1011.5
20260505084245 55 344 2.0 4.0 0.07 0.83 0.00 96 1011.7
20260505083750 55 67 2.0 9.0 0.06 0.81 0.00 96 1011.7
20260505083245 55 99 6.0 10.0 0.04 0.80 0.00 96 1011.6
20260505082831 55 252 4.0 9.0 0.02 0.77 0.00 96 1011.8
20260505082337 55 322 4.0 6.0 0.00 0.76 0.00 96 1011.3
20260505081737 54 194 0.0 5.0 0.00 0.75 0.00 96 1011.3
20260505081243 54 257 0.0 19.0 0.00 0.75 0.00 96 1011.2
20260505080738 54 101 16.0 16.0 0.01 0.75 0.00 96 1011.2
20260505080237 54 36 0.0 2.0 0.01 0.75 0.00 96 1011.2
20260505075743 54 56 0.0 4.0 0.01 0.75 0.00 96 1011.3
20260505075243 54 283 4.0 6.0 0.03 0.75 0.00 96 1011.4
20260505074742 54 298 0.0 2.0 0.08 0.75 0.00 96 1011.6
20260505074246 54 298 0.0 0.0 0.13 0.75 0.00 95 1011.7
20260505073737 54 298 0.0 1.0 0.15 0.75 0.00 95 1011.8
20260505072737 54 268 2.0 2.0 0.18 0.75 0.00 96 1011.9
20260505072237 54 144 0.0 2.0 0.20 0.75 0.00 96 1012.0
20260505071738 54 134 1.0 4.0 0.19 0.74 0.00 96 1012.0
20260505071237 53 98 3.0 3.0 0.19 0.74 0.00 95 1012.0
20260505070737 53 248 0.0 1.0 0.18 0.74 0.00 95 1012.3
20260505070240 53 249 0.0 3.0 0.19 0.74 0.00 95 1012.3
20260505065737 53 218 0.0 3.0 0.19 0.74 0.00 95 1012.2
20260505065240 53 186 2.0 4.0 0.17 0.71 0.00 95 1012.0
20260505064737 53 178 2.0 4.0 0.13 0.66 0.00 95 1012.0
20260505064243 53 107 2.0 3.0 0.10 0.62 0.00 95 1011.9
20260505063737 53 280 0.0 2.0 0.12 0.59 0.00 95 1011.9
20260505063240 54 280 0.0 3.0 0.13 0.58 0.00 95 1012.0
20260505062737 54 301 2.0 3.0 0.12 0.56 0.00 95 1011.9
20260505062237 54 302 1.0 4.0 0.11 0.55 0.00 95 1012.0
20260505061743 53 115 1.0 4.0 0.11 0.55 0.00 95 1012.1
20260505061237 53 108 3.0 6.0 0.16 0.55 0.00 95 1012.1
20260505060737 53 94 3.0 4.0 0.22 0.55 0.00 95 1012.2
20260505060244 53 285 4.0 9.0 0.30 0.54 0.00 94 1012.3
20260505055740 53 271 3.0 4.0 0.36 0.54 0.00 95 1012.2
20260505055240 53 103 0.0 4.0 0.40 0.54 0.00 95 1012.2
20260505054737 53 107 2.0 6.0 0.42 0.53 0.00 94 1012.2
20260505054246 53 105 3.0 4.0 0.42 0.51 0.00 94 1012.5
20260505053740 53 280 0.0 7.0 0.39 0.47 0.00 94 1012.5
20260505053240 54 288 1.0 3.0 0.37 0.44 0.00 94 1012.4
20260505052737 54 244 0.0 2.0 0.37 0.44 0.00 94 1012.1
20260505052237 53 10 0.0 2.0 0.37 0.44 0.00 94 1011.9
20260505051742 53 108 1.0 2.0 0.37 0.43 0.00 94 1012.0
20260505051237 54 117 1.0 2.0 0.32 0.38 0.00 94 1012.2
20260505050743 54 117 0.0 2.0 0.25 0.32 0.00 94 1012.3
20260505050243 54 117 2.0 2.0 0.17 0.23 0.00 93 1012.4
20260505041737 54 165 0.0 2.0 0.01 0.06 0.00 93 1012.2
20260505041237 54 165 1.0 2.0 0.01 0.06 0.00 92 1012.2
20260505040737 54 165 0.0 1.0 0.01 0.06 0.00 92 1012.2
20260505040243 54 165 1.0 1.0 0.01 0.06 0.00 92 1012.2
20260505035740 54 165 0.0 1.0 0.01 0.06 0.00 92 1012.3
20260505035240 54 165 0.0 0.0 0.01 0.06 0.00 92 1012.3
20260505034737 54 165 0.0 0.0 0.02 0.06 0.00 92 1012.4
20260505034246 54 165 0.0 0.0 0.02 0.06 0.00 92 1012.5
20260505033740 54 165 0.0 0.0 0.03 0.06 0.00 92 1012.5
20260505033259 54 165 0.0 1.0 0.03 0.05 0.00 92 1012.6
20260505032737 54 165 0.0 1.0 0.03 0.05 0.00 91 1012.7
20260505032240 54 165 0.0 0.0 0.03 0.04 0.00 91 1012.7
20260505031740 54 165 0.0 0.0 0.03 0.04 0.00 91 1012.8
20260505031237 54 165 0.0 0.0 0.03 0.04 0.00 91 1012.9
20260505030737 54 165 0.0 2.0 0.04 0.04 0.00 91 1012.9
20260505030243 54 165 0.0 2.0 0.04 0.04 0.00 90 1013.0
20260505025737 55 165 0.0 2.0 0.04 0.04 0.00 90 1013.1
20260505025244 55 165 0.0 0.0 0.04 0.04 0.00 90 1013.1
20260505024743 55 165 0.0 2.0 0.03 0.03 0.00 89 1013.1
20260505024237 55 0 0.0 3.0 0.03 0.03 0.00 89 1013.2
20260505023737 55 0 1.0 3.0 0.03 0.03 0.00 88 1013.3
20260505023237 55 14 3.0 3.0 0.02 0.02 0.00 88 1013.3
20260505022747 55 50 2.0 2.0 0.01 0.01 0.00 87 1013.4
20260505022237 55 82 1.0 3.0 0.01 0.01 0.00 87 1013.5
20260505021744 56 69 3.0 3.0 0.00 0.00 0.00 86 1013.6
20260505021244 56 96 1.0 3.0 0.00 0.00 0.00 85 1013.7
20260505020738 56 104 1.0 1.0 0.00 0.00 0.00 84 1013.7
20260505020240 56 103 0.0 1.0 0.00 0.00 0.00 83 1013.6
20260505015737 56 104 0.0 2.0 0.00 0.00 0.00 83 1013.7
20260505015237 56 103 0.0 1.0 0.00 0.00 0.00 82 1013.8
20260505014737 56 103 0.0 1.0 0.00 0.00 0.00 82 1013.9
20260505014243 56 104 1.0 2.0 0.00 0.00 0.00 83 1014.0
20260505013741 56 103 2.0 2.0 0.00 0.00 0.00 83 1013.9
20260505013237 56 104 0.0 2.0 0.00 0.00 0.00 83 1014.0
20260505012740 56 105 2.0 2.0 0.00 0.00 0.00 83 1014.1
20260505012240 55 124 0.0 0.0 0.00 0.00 0.00 84 1014.2
20260505011737 55 124 0.0 1.0 0.00 0.00 0.00 84 1014.2
20260505011240 55 124 0.0 2.0 0.00 0.00 0.00 83 1014.2
20260505010740 55 124 1.0 2.0 0.00 0.00 0.00 83 1014.3
20260505010237 55 124 1.0 2.0 0.00 0.00 0.00 83 1014.3
20260505005744 56 176 1.0 5.0 0.00 0.00 0.00 82 1014.4
20260505005243 56 248 0.0 2.0 0.00 0.00 0.00 83 1014.5
20260505004743 56 94 0.0 0.0 0.00 0.00 0.00 82 1014.7
20260505004237 56 94 0.0 2.0 0.00 0.00 0.00 82 1014.7
20260505003737 56 94 1.0 2.0 0.00 0.00 0.00 81 1014.8
20260505003240 56 94 0.0 1.0 0.00 0.00 0.00 81 1015.0
20260505002737 56 94 0.0 1.0 0.00 0.00 0.00 81 1015.0
20260505002246 56 94 0.0 0.0 0.00 0.00 0.00 81 1015.1
20260505001740 56 94 0.0 2.0 0.00 0.00 0.00 81 1015.2
20260505001237 56 94 1.0 2.0 0.00 0.00 0.00 82 1015.3
20260505000740 56 94 0.0 1.0 0.00 0.00 0.00 82 1015.4
20260505000246 56 94 0.0 2.0 0.00 0.00 0.00 82 1015.5
20260504235737 55 94 2.0 2.0 0.00 0.00 0.00 83 1015.6
20260504235240 55 132 1.0 2.0 0.00 0.00 0.00 82 1015.6
20260504234737 55 138 0.0 2.0 0.00 0.00 0.00 82 1015.6
20260504234240 56 138 0.0 2.0 0.00 0.00 0.00 81 1015.6
20260504233740 56 126 1.0 2.0 0.00 0.00 0.00 81 1015.7
20260504233246 56 99 0.0 0.0 0.00 0.00 0.00 80 1015.8
20260504232743 56 99 0.0 0.0 0.00 0.00 0.00 80 1015.9
20260504232243 56 99 0.0 0.0 0.00 0.00 0.00 80 1016.0
20260504231743 56 99 0.0 0.0 0.00 0.00 0.00 80 1016.1
20260504231240 56 99 0.0 0.0 0.00 0.00 0.00 79 1016.1
20260504230737 56 99 0.0 1.0 0.00 0.00 0.00 79 1016.2
20260504230237 57 99 0.0 0.0 0.00 0.00 0.00 79 1016.2
20260504225740 57 99 0.0 0.0 0.00 0.00 0.00 79 1016.3
20260504225240 57 99 0.0 2.0 0.00 0.00 0.00 79 1016.3
20260504224737 57 86 2.0 3.0 0.00 0.00 0.00 79 1016.4
20260504224237 57 69 0.0 3.0 0.00 0.00 0.00 79 1016.4
20260504223737 56 88 2.0 3.0 0.00 0.00 0.00 79 1016.4
20260504223237 56 74 2.0 3.0 0.00 0.00 0.00 79 1016.4
20260504222737 57 131 1.0 3.0 0.00 0.00 0.00 79 1016.4
20260504222240 57 127 3.0 3.0 0.00 0.00 0.00 78 1016.5
20260504221737 57 167 0.0 3.0 0.00 0.00 0.00 77 1016.5
20260504221237 58 228 0.0 2.0 0.00 0.00 0.00 77 1016.5
20260504220737 58 128 1.0 2.0 0.00 0.00 0.00 76 1016.5
20260504220240 58 105 2.0 3.0 0.00 0.00 0.00 77 1016.5
20260504215737 58 88 1.0 2.0 0.00 0.00 0.00 76 1016.5
20260504215237 58 252 0.0 1.0 0.00 0.00 0.00 76 1016.6
20260504214737 58 252 0.0 3.0 0.00 0.00 0.00 76 1016.6
20260504214237 58 130 2.0 3.0 0.00 0.00 0.00 76 1016.7
20260504213737 58 111 1.0 3.0 0.00 0.00 0.00 75 1016.7
20260504213240 58 121 2.0 4.0 0.00 0.00 0.00 75 1016.6
20260504212740 58 122 3.0 5.0 0.00 0.00 0.00 75 1016.7
20260504212240 58 127 3.0 5.0 0.00 0.00 0.00 75 1016.7
20260504211743 59 142 3.0 5.0 0.00 0.00 0.00 74 1016.7
20260504211240 59 121 2.0 3.0 0.00 0.00 0.00 74 1016.7
20260504210740 59 173 1.0 4.0 0.00 0.00 0.00 74 1016.7
20260504210237 59 128 3.0 5.0 0.00 0.00 0.00 74 1016.7
20260504205737 59 148 3.0 4.0 0.00 0.00 0.00 74 1016.7
20260504205242 59 126 2.0 5.0 0.00 0.00 0.00 73 1016.7
20260504204740 59 140 3.0 4.0 0.00 0.00 0.00 73 1016.8
20260504204237 59 128 2.0 4.0 0.00 0.00 0.00 73 1016.9
20260504203737 59 120 2.0 5.0 0.00 0.00 0.00 73 1016.9
20260504203237 60 121 4.0 6.0 0.00 0.00 0.00 73 1016.8
20260504202737 60 135 0.0 4.0 0.00 0.00 0.00 72 1016.9
20260504202243 60 125 2.0 3.0 0.00 0.00 0.00 72 1016.9
20260504201740 60 149 2.0 3.0 0.00 0.00 0.00 72 1016.8
20260504201246 60 119 2.0 5.0 0.00 0.00 0.00 72 1016.7
20260504200740 60 150 3.0 4.0 0.00 0.00 0.00 72 1016.7
20260504200237 60 139 2.0 4.0 0.00 0.00 0.00 72 1016.6
20260504195743 60 134 2.0 3.0 0.00 0.00 0.00 72 1016.6
20260504195243 60 121 3.0 3.0 0.00 0.00 0.00 72 1016.6
20260504194737 60 125 2.0 3.0 0.00 0.00 0.00 71 1016.5
20260504194240 60 173 0.0 5.0 0.00 0.00 0.00 71 1016.5
20260504193737 61 160 4.0 4.0 0.00 0.00 0.00 71 1016.4
20260504193243 61 159 0.0 3.0 0.00 0.00 0.00 71 1016.4
20260504192737 61 176 0.0 2.0 0.00 0.00 0.00 71 1016.4
20260504192237 61 202 0.0 3.0 0.00 0.00 0.00 70 1016.3
20260504191737 62 260 3.0 5.0 0.00 0.00 0.00 70 1016.2
20260504191240 62 246 1.0 4.0 0.00 0.00 0.00 70 1016.1
20260504190742 62 196 1.0 7.0 0.00 0.00 0.00 69 1016.0
20260504190239 62 268 4.0 6.0 0.00 0.00 0.00 68 1015.9
20260504185737 62 254 3.0 5.0 0.00 0.00 0.00 68 1015.8
20260504185240 63 171 1.0 5.0 0.00 0.00 0.00 67 1015.6
20260504184742 63 123 1.0 5.0 0.00 0.00 0.00 67 1015.6
20260504184239 63 130 3.0 10.0 0.00 0.00 0.00 65 1015.6
20260504183745 63 47 1.0 8.0 0.00 0.00 0.00 64 1015.6
20260504183236 63 162 5.0 8.0 0.00 0.00 0.00 64 1015.7
20260504182740 63 159 1.0 5.0 0.00 0.00 0.00 65 1015.6
20260504182245 64 233 3.0 4.0 0.00 0.00 0.00 65 1015.6
20260504181737 64 150 3.0 6.0 0.00 0.00 0.00 66 1015.5
20260504181237 64 230 0.0 6.0 0.00 0.00 0.00 66 1015.6
20260504180736 64 197 0.0 4.0 0.00 0.00 0.00 66 1015.5
20260504180236 64 205 1.0 7.0 0.00 0.00 0.00 65 1015.5
20260504175742 64 310 1.0 7.0 0.00 0.00 0.00 64 1015.4
20260504175240 64 261 3.0 6.0 0.00 0.00 0.00 64 1015.4
20260504174740 65 0 2.0 4.0 0.00 0.00 0.00 64 1015.4
20260504174236 65 188 0.0 4.0 0.00 0.00 0.00 64 1015.3
20260504173737 65 140 1.0 7.0 0.00 0.00 0.00 64 1015.2
20260504173236 66 228 0.0 5.0 0.00 0.00 0.00 62 1015.1
20260504172739 66 157 1.0 8.0 0.00 0.00 0.00 62 1015.1
20260504172236 66 217 3.0 5.0 0.00 0.00 0.00 62 1015.1
20260504171736 67 327 0.0 4.0 0.00 0.00 0.00 61 1015.1
20260504171236 67 245 3.0 10.0 0.00 0.00 0.00 60 1015.1